Notices

What's New in latest Release from April 7th, 2021:

- Updated Glossary, including Speed of Maximum Gust, and Total Hourly Precipitation

- Updated national and regional climate services offices contacts and prices information

- Addition of station inventory lists for 1981-2010, 1971-2000, and 1961-1990 Normals.

If you haven't already, please take our survey and provide feedback about our website: https://eccc.sondage-survey.ca/f/LanguageSelection.aspx?s=442ca660-fcf1-47c0-95a9-59707d6fd709

Hourly Data Report for April 28, 2004

TORONTO CITY
ONTARIO

43°40'00.000" N
79°24'00.000" W
112.50 m
6158355
71508
XTO

Download Data

Hourly Data (April 2004)
Hourly Data Report for April 28, 2004
TIME
LST
Temp Definition
°C
Dew Point Definition
°C
Rel Hum Definition
%
Precip. Amount Definition
mm

Wind Dir Definition
10's deg

Wind Spd Definition
km/h
Visibility Definition
km
Stn Press Definition
kPa
Hmdx Definition


Wind Chill Definition


Weather Definition


00:00 1.0 -4.9 65   LegendMM LegendMM LegendMM 100.24     LegendNANA
01:00 0.8 -4.8 66   LegendMM LegendMM LegendMM 100.27     LegendNANA
02:00 0.6 -4.1 71   LegendMM LegendMM LegendMM 100.32     LegendNANA
03:00 0.1 -4.2 73   LegendMM LegendMM LegendMM 100.35     LegendNANA
04:00 0.0 -4.2 73   LegendMM LegendMM LegendMM 100.44     LegendNANA
05:00 0.0 -4.2 73   LegendMM LegendMM LegendMM 100.49     LegendNANA
06:00 0.2 -4.3 72   LegendMM LegendMM LegendMM 100.56     LegendNANA
07:00 2.4 -2.9 68   LegendMM LegendMM LegendMM 100.62     LegendNANA
08:00 4.1 -2.6 62   LegendMM LegendMM LegendMM 100.68     LegendNANA
09:00 6.0 -2.0 56   LegendMM LegendMM LegendMM 100.69     LegendNANA
10:00 6.3 -1.3 58   LegendMM LegendMM LegendMM 100.69     LegendNANA
11:00 7.0 -2.7 50   LegendMM LegendMM LegendMM 100.69     LegendNANA
12:00 8.7 -3.9 41   LegendMM LegendMM LegendMM 100.67     LegendNANA
13:00 9.1 -3.8 40   LegendMM LegendMM LegendMM 100.66     LegendNANA
14:00 9.0 -0.8 50   LegendMM LegendMM LegendMM 100.61     LegendNANA
15:00 9.0 -3.7 41   LegendMM LegendMM LegendMM 100.54     LegendNANA
16:00 8.2 0.7 59   LegendMM LegendMM LegendMM 100.55     LegendNANA
17:00 7.6 1.3 64   LegendMM LegendMM LegendMM 100.56     LegendNANA
18:00 6.6 2.8 77   LegendMM LegendMM LegendMM 100.42     LegendNANA
19:00 7.9 2.1 67   LegendMM LegendMM LegendMM 100.46     LegendNANA
20:00 7.2 2.1 70   LegendMM LegendMM LegendMM 100.44     LegendNANA
21:00 6.0 1.8 74   LegendMM LegendMM LegendMM 100.35     LegendNANA
22:00 6.7 2.1 72   LegendMM LegendMM LegendMM 100.34     LegendNANA
23:00 7.2 3.1 75   LegendMM LegendMM LegendMM 100.29     LegendNANA

Notes on Data Quality.

Legend

  • E = Estimated
  • M = Missing
  • NA = Not Available*
  • [empty] = Indicates an unobserved value
Date modified: